Location: Caltech
(34.1382°N, 118.1253°W)
Time: 08:44:56
(UTC-08:00)

Aureole 3 Rocket - Visible Passes

Search period start: 04 March 2015 00:00
Search period end: 14 March 2015 01:00
Orbit: 398 x 1754 km, 82.5° (Epoch: 04 March)

Date Brightness Start Highest point End Pass type
(mag) Time Alt. Az. Time Alt. Az. Time Alt. Az.
04 Mar 4.7 18:23:30 10° SSE 18:31:31 46° E 18:37:34 10° NNE visible
04 Mar 6.2 20:12:12 10° SW 20:19:07 28° W 20:24:22 10° NNW visible
05 Mar 5.5 05:39:53 10° NE 05:41:54 17° ENE 05:44:03 10° ESE visible
05 Mar 4.9 19:19:07 10° SSW 19:27:26 61° W 19:33:26 10° N visible
06 Mar 4.3 18:27:37 10° S 18:35:46 63° E 18:41:41 10° NNE visible
06 Mar 6.7 20:18:09 10° WSW 20:23:23 19° WNW 20:27:24 10° NW visible
07 Mar 4.5 05:43:09 10° NNE 05:45:53 30° E 05:48:52 10° SE visible
07 Mar 5.4 19:24:06 10° SSW 19:31:36 42° W 19:37:04 10° NNW visible
08 Mar 4.2 19:31:58 10° S 19:39:58 85° E 19:45:37 10° N visible
08 Mar 7.1 21:25:20 10° W 21:27:39 11° WNW 21:29:17 10° WNW visible
09 Mar 2.9 06:46:46 10° N 06:49:47 62° E 06:53:15 10° SSE visible
09 Mar 6.1 20:29:23 10° SW 20:35:44 29° W 20:40:28 10° NNW visible
10 Mar 5.8 05:56:20 10° NE 05:57:55 13° ENE 05:59:46 10° ESE visible
10 Mar 4.5 19:36:32 10° SSW 19:44:05 68° W 19:49:25 10° N visible
11 Mar 6.7 20:35:08 10° WSW 20:39:51 19° W 20:43:28 10° NW visible
12 Mar 5.0 05:59:14 10° NNE 06:01:53 25° E 06:05:00 10° SE visible
12 Mar 5.1 19:41:20 10° SSW 19:48:08 46° W 19:53:01 10° N visible
13 Mar 7.1 20:42:08 10° W 20:44:00 11° WNW 20:45:18 10° WNW visible
